Regional Weather Roundup
Issued by NWS

Home | Current Version | Previous Version | Graphics & Text | Print | Product List | Glossary On
Versions: 1 2 3 4 5 6 7 8 9 10 11 12 13 14 15 16 17 18 19 20 21 22 23 24 25 26 27 28 29 30 31 32 33 34 35 36 37 38 39 40 41 42 43 44 45 46 47 48 49 50
000
ASUS43 KOAX 300510
RWRNE

WEATHER ROUNDUP FOR NEBRASKA
NATIONAL WEATHER SERVICE OMAHA NE
1200 AM CDT SUN AUG 30 2015

NOTES: SATELLITE DATA IS BEING USED TO AUGMENT CLOUD COVER ABOVE
       12000 FEET.
       "FAIR" INDICATES FEW OR NO CLOUDS BELOW 12,000 FEET WITH NO
       SIGNIFICANT WEATHER AND/OR OBSTRUCTIONS TO VISIBILITY.

  * THESE STATIONS DO NOT REPORT WEATHER SUCH AS RAIN...SNOW OR FOG.

NEZ001>004-019>022-054>056-300600-
NEBRASKA PANHANDLE

CITY           SKY/WX    TMP DP  RH WIND       PRES   REMARKS
SCOTTSBLUFF    CLEAR     64  48  56 E9        30.04S
ALLIANCE       CLEAR     67  47  48 S14       30.04S
CHADRON        PTCLDY    80  41  24 S21       29.95F
KIMBALL        CLEAR     63  43  49 S7        30.11S
SIDNEY         CLEAR     68  43  40 S12       30.11S
$$

NEZ057>060-069>072-079>082-300600-
SOUTHWEST NEBRASKA

CITY           SKY/WX    TMP DP  RH WIND       PRES   REMARKS
NORTH PLATTE   CLEAR     69  57  65 S8        30.06R
IMPERIAL       CLEAR     66  50  56 S7        30.08S
LEXINGTON      CLEAR     64  58  82 SE5       30.06S
MCCOOK         CLEAR     67  53  61 S10       30.06F
OGALLALA       CLEAR     69  54  57 S13G18    30.05F
$$

NEZ005>010-023>029-035>040-094-300600-
NORTH CENTRAL NEBRASKA

CITY           SKY/WX    TMP DP  RH WIND       PRES   REMARKS
VALENTINE      CLEAR     73  59  61 S14       29.98S
AINSWORTH      CLEAR     70  62  75 S13       30.01S
BROKEN BOW     CLEAR     64  61  90 CALM      30.05S
O`NEILL        CLOUDY    67  65  93 S7        30.01S
ORD            CLEAR     60  58  92 CALM      30.03S
THEDFORD       CLEAR     69  62  79 S9        30.05S
$$

NEZ041-046>049-061>064-073>077-083>087-300600-
SOUTH CENTRAL NEBRASKA

CITY           SKY/WX    TMP DP  RH WIND       PRES   REMARKS
GRAND ISLAND   CLEAR     65  63  93 S10       30.06F
AURORA         CLEAR     62  62 100 S6        30.06F FOG
HASTINGS       CLEAR     65  62  90 S9        30.06F
HEBRON         CLEAR     60  58  92 CALM      30.06S FOG
HOLDREGE       CLEAR     63  58  83 S3        30.07S
KEARNEY *      CLEAR     63  57  82 S8        30.06S
YORK           MOCLDY    63  61  94 S5        30.07S
$$

NEZ011>018-030>034-042>045-300600-
NORTHEAST NEBRASKA

CITY           SKY/WX    TMP DP  RH WIND       PRES   REMARKS
NORFOLK        PTCLDY    63  62  97 SE8       30.04S
ALBION         CLEAR     64  61  91 SE5       30.05S
BLAIR          CLOUDY    64  61  91 CALM      30.05S
COLUMBUS *     CLEAR    N/A N/A N/A S5        30.06R
FREMONT        CLOUDY    64  61  92 S3        30.06S
TEKAMAH        CLOUDY    63  62  97 S5        30.05S
WAYNE          CLEAR     61  60  97 S6        30.05S
$$

NEZ050>053-065>068-078-088>093-300600-
SOUTHEAST NEBRASKA

CITY           SKY/WX    TMP DP  RH WIND       PRES   REMARKS
LINCOLN        CLOUDY    64  61  90 S8        30.07S
OMAHA EPPLEY   CLOUDY    68  64  87 SE5       30.05S
BEATRICE       CLOUDY    63  61  93 CALM      30.06S
FALLS CITY     CLEAR     60  59  96 CALM      30.05S
NEBRASKA CITY  CLEAR     61  60  99 SW5       30.06S
PLATTSMOUTH    CLOUDY    65  62  88 S5        30.05F
$$

NEZ044-045-051>053-067-300600-
OMAHA AREA

CITY           SKY/WX    TMP DP  RH WIND       PRES   REMARKS
OMAHA EPPLEY   CLOUDY    68  64  87 SE5       30.05S
BLAIR          CLOUDY    64  61  91 CALM      30.05S
FREMONT        CLOUDY    64  61  92 S3        30.06S
MILLARD        CLOUDY    66  63  89 CALM      30.05S
OFFUTT AFB     CLOUDY    66  64  93 CALM      30.04F
PLATTSMOUTH    CLOUDY    65  62  88 S5        30.05F
WAHOO          CLOUDY    61  60  97 CALM      30.06S FOG
$$



USA.gov is the U.S. government's official web portal to all federal, state and local government web resources and services.